| time (UTC) | temp F | wind direction | speed MPH | gust MPH | rain 1hr in | rain 24hr in | rain mn in | humidity % | barometer mb |
| 20260509185507 | 61 | 304 | 2.0 | 2.0 | 0.00 | 0.01 | 0.01 | 81 | 1011.0 |
| 20260509185004 | 61 | 314 | 1.0 | 3.0 | 0.00 | 0.01 | 0.01 | 80 | 1011.0 |
| 20260509184503 | 62 | 306 | 2.0 | 3.0 | 0.00 | 0.01 | 0.01 | 81 | 1011.0 |
| 20260509183958 | 61 | 7 | 2.0 | 3.0 | 0.00 | 0.01 | 0.01 | 80 | 1010.9 |
| 20260509183458 | 61 | 3 | 1.0 | 3.0 | 0.00 | 0.01 | 0.01 | 82 | 1011.1 |
| 20260509182955 | 61 | 323 | 1.0 | 4.0 | 0.00 | 0.01 | 0.01 | 81 | 1011.1 |
| 20260509182451 | 61 | 13 | 0.0 | 1.0 | 0.00 | 0.01 | 0.01 | 81 | 1011.1 |
| 20260509181949 | 60 | 311 | 2.0 | 2.0 | 0.00 | 0.01 | 0.01 | 82 | 1011.1 |
| 20260509181447 | 60 | 17 | 2.0 | 2.0 | 0.00 | 0.01 | 0.01 | 82 | 1011.4 |
| 20260509180944 | 60 | 60 | 1.0 | 2.0 | 0.00 | 0.01 | 0.01 | 82 | 1011.3 |
| 20260509180439 | 60 | 95 | 3.0 | 4.0 | 0.00 | 0.01 | 0.01 | 83 | 1011.3 |
| 20260509175937 | 60 | 346 | 2.0 | 3.0 | 0.00 | 0.01 | 0.01 | 83 | 1011.3 |
| 20260509175433 | 60 | 317 | 1.0 | 4.0 | 0.00 | 0.01 | 0.01 | 83 | 1011.3 |
| 20260509174929 | 61 | 10 | 0.0 | 2.0 | 0.00 | 0.01 | 0.01 | 82 | 1011.2 |
| 20260509174425 | 61 | 336 | 0.0 | 1.0 | 0.00 | 0.01 | 0.01 | 82 | 1011.3 |
| 20260509173921 | 61 | 353 | 0.0 | 1.0 | 0.00 | 0.01 | 0.01 | 82 | 1011.3 |
| 20260509173421 | 60 | 318 | 1.0 | 2.0 | 0.00 | 0.01 | 0.01 | 84 | 1011.7 |
| 20260509172918 | 60 | 335 | 0.0 | 2.0 | 0.00 | 0.01 | 0.01 | 85 | 1011.7 |
| 20260509172414 | 59 | 329 | 2.0 | 3.0 | 0.00 | 0.01 | 0.01 | 85 | 1011.7 |
| 20260509171910 | 60 | 354 | 2.0 | 3.0 | 0.00 | 0.01 | 0.01 | 85 | 1011.9 |
| 20260509171407 | 60 | 25 | 1.0 | 3.0 | 0.00 | 0.01 | 0.01 | 84 | 1011.9 |
| 20260509170903 | 59 | 46 | 0.0 | 2.0 | 0.00 | 0.01 | 0.01 | 86 | 1012.0 |
| 20260509170358 | 58 | 314 | 0.0 | 1.0 | 0.00 | 0.01 | 0.01 | 88 | 1012.2 |
| 20260509165854 | 58 | 320 | 1.0 | 2.0 | 0.00 | 0.01 | 0.01 | 88 | 1012.0 |
| 20260509165348 | 58 | 311 | 2.0 | 3.0 | 0.00 | 0.01 | 0.01 | 88 | 1012.1 |
| 20260509164844 | 59 | 10 | 1.0 | 1.0 | 0.00 | 0.01 | 0.01 | 89 | 1012.0 |
| 20260509164341 | 58 | 80 | 2.0 | 2.0 | 0.00 | 0.01 | 0.01 | 88 | 1012.1 |
| 20260509163837 | 58 | 318 | 2.0 | 2.0 | 0.00 | 0.01 | 0.01 | 89 | 1012.2 |
| 20260509163328 | 58 | 115 | 0.0 | 3.0 | 0.00 | 0.01 | 0.01 | 88 | 1012.3 |
| 20260509162828 | 58 | 58 | 1.0 | 1.0 | 0.00 | 0.01 | 0.01 | 88 | 1012.4 |
| 20260509162325 | 58 | 53 | 1.0 | 2.0 | 0.00 | 0.01 | 0.01 | 88 | 1012.4 |
| 20260509161822 | 58 | 316 | 0.0 | 0.0 | 0.00 | 0.01 | 0.01 | 87 | 1012.8 |
| 20260509161319 | 58 | 316 | 0.0 | 0.0 | 0.00 | 0.01 | 0.01 | 86 | 1012.6 |
| 20260509160814 | 58 | 316 | 0.0 | 0.0 | 0.00 | 0.01 | 0.01 | 85 | 1012.5 |
| 20260509160310 | 58 | 316 | 0.0 | 0.0 | 0.00 | 0.01 | 0.01 | 85 | 1012.6 |
| 20260509155806 | 58 | 316 | 0.0 | 0.0 | 0.00 | 0.01 | 0.01 | 85 | 1012.9 |
| 20260509155306 | 59 | 316 | 0.0 | 0.0 | 0.00 | 0.01 | 0.01 | 85 | 1012.6 |
| 20260509154758 | 58 | 316 | 0.0 | 0.0 | 0.00 | 0.01 | 0.01 | 87 | 1012.6 |
| 20260509154256 | 58 | 316 | 0.0 | 0.0 | 0.00 | 0.01 | 0.01 | 86 | 1012.7 |
| 20260509153752 | 58 | 316 | 0.0 | 1.0 | 0.00 | 0.01 | 0.01 | 86 | 1012.7 |
| 20260509153243 | 57 | 316 | 0.0 | 1.0 | 0.00 | 0.01 | 0.01 | 86 | 1012.5 |
| 20260509152740 | 57 | 316 | 0.0 | 1.0 | 0.00 | 0.01 | 0.01 | 85 | 1012.7 |
| 20260509152237 | 57 | 327 | 0.0 | 0.0 | 0.00 | 0.01 | 0.01 | 86 | 1012.6 |
| 20260509151733 | 57 | 327 | 1.0 | 1.0 | 0.00 | 0.01 | 0.01 | 87 | 1012.7 |
| 20260509151230 | 57 | 327 | 0.0 | 0.0 | 0.00 | 0.01 | 0.01 | 88 | 1012.7 |
| 20260509150727 | 56 | 327 | 0.0 | 1.0 | 0.00 | 0.01 | 0.01 | 88 | 1012.7 |
| 20260509150226 | 56 | 327 | 0.0 | 0.0 | 0.00 | 0.01 | 0.01 | 88 | 1012.7 |
| 20260509145722 | 57 | 327 | 0.0 | 1.0 | 0.00 | 0.01 | 0.01 | 88 | 1012.5 |
| 20260509145217 | 56 | 327 | 0.0 | 0.0 | 0.00 | 0.01 | 0.01 | 88 | 1012.8 |
| 20260509144714 | 56 | 327 | 1.0 | 1.0 | 0.00 | 0.01 | 0.01 | 89 | 1012.8 |
| 20260509144211 | 56 | 327 | 1.0 | 2.0 | 0.00 | 0.01 | 0.01 | 89 | 1012.8 |
| 20260509143708 | 56 | 14 | 1.0 | 1.0 | 0.00 | 0.01 | 0.01 | 90 | 1012.9 |
| 20260509143205 | 55 | 23 | 0.0 | 1.0 | 0.00 | 0.01 | 0.01 | 89 | 1013.0 |
| 20260509142700 | 55 | 84 | 0.0 | 1.0 | 0.00 | 0.01 | 0.01 | 90 | 1012.8 |
| 20260509142158 | 55 | 83 | 1.0 | 1.0 | 0.00 | 0.01 | 0.01 | 90 | 1012.9 |
| 20260509141653 | 54 | 295 | 0.0 | 0.0 | 0.00 | 0.01 | 0.01 | 90 | 1013.1 |
| 20260509141150 | 54 | 295 | 0.0 | 1.0 | 0.00 | 0.01 | 0.01 | 91 | 1013.0 |
| 20260509140647 | 53 | 295 | 0.0 | 1.0 | 0.00 | 0.01 | 0.01 | 91 | 1013.1 |
| 20260509140145 | 53 | 315 | 0.0 | 0.0 | 0.00 | 0.01 | 0.01 | 93 | 1013.1 |
| 20260509135642 | 53 | 315 | 0.0 | 0.0 | 0.00 | 0.01 | 0.01 | 92 | 1012.9 |
| 20260509135140 | 53 | 315 | 2.0 | 2.0 | 0.00 | 0.01 | 0.01 | 91 | 1013.0 |
| 20260509134636 | 53 | 349 | 1.0 | 1.0 | 0.00 | 0.01 | 0.01 | 91 | 1013.1 |
| 20260509134134 | 53 | 82 | 0.0 | 0.0 | 0.00 | 0.01 | 0.01 | 91 | 1012.9 |
| 20260509133631 | 53 | 85 | 0.0 | 0.0 | 0.00 | 0.01 | 0.01 | 91 | 1013.1 |
| 20260509133128 | 53 | 85 | 0.0 | 0.0 | 0.07 | 0.01 | 0.01 | 91 | 1013.0 |
| 20260509132626 | 53 | 85 | 0.0 | 0.0 | 0.07 | 0.01 | 0.01 | 91 | 1013.2 |
| 20260509132124 | 52 | 29 | 0.0 | 1.0 | 0.00 | 0.00 | 0.00 | 90 | 1013.0 |
| 20260509131620 | 52 | 357 | 1.0 | 2.0 | 0.00 | 0.00 | 0.00 | 89 | 1012.8 |
| 20260509131117 | 52 | 74 | 1.0 | 3.0 | 0.00 | 0.00 | 0.00 | 90 | 1012.7 |
| 20260509130613 | 52 | 274 | 0.0 | 1.0 | 0.00 | 0.00 | 0.00 | 91 | 1012.6 |
| 20260509130110 | 52 | 265 | 1.0 | 1.0 | 0.00 | 0.00 | 0.00 | 92 | 1013.0 |
| 20260509125606 | 52 | 265 | 0.0 | 1.0 | 0.00 | 0.00 | 0.00 | 91 | 1012.8 |
| 20260509125102 | 52 | 253 | 0.0 | 0.0 | 0.00 | 0.00 | 0.00 | 91 | 1013.0 |
| 20260509124559 | 52 | 253 | 0.0 | 0.0 | 0.00 | 0.00 | 0.00 | 90 | 1013.2 |
| 20260509124056 | 52 | 254 | 0.0 | 1.0 | 0.00 | 0.00 | 0.00 | 90 | 1013.2 |
| 20260509123554 | 52 | 152 | 0.0 | 3.0 | 0.00 | 0.00 | 0.00 | 90 | 1012.9 |
| 20260509123051 | 52 | 266 | 0.0 | 1.0 | 0.00 | 0.00 | 0.00 | 90 | 1012.9 |
| 20260509122547 | 52 | 281 | 0.0 | 0.0 | 0.00 | 0.00 | 0.00 | 92 | 1012.9 |
| 20260509122044 | 52 | 238 | 0.0 | 0.0 | 0.00 | 0.00 | 0.00 | 91 | 1013.1 |
| 20260509121540 | 52 | 238 | 0.0 | 0.0 | 0.00 | 0.00 | 0.00 | 92 | 1013.0 |
| 20260509121038 | 51 | 238 | 0.0 | 0.0 | 0.00 | 0.00 | 0.00 | 91 | 1013.0 |
| 20260509120536 | 51 | 238 | 0.0 | 0.0 | 0.00 | 0.00 | 0.00 | 91 | 1013.1 |
| 20260509120034 | 51 | 238 | 0.0 | 0.0 | 0.00 | 0.00 | 0.00 | 93 | 1013.2 |
| 20260509115531 | 51 | 238 | 0.0 | 0.0 | 0.00 | 0.00 | 0.00 | 93 | 1013.2 |
| 20260509115029 | 51 | 289 | 0.0 | 0.0 | 0.00 | 0.00 | 0.00 | 93 | 1013.1 |
| 20260509114527 | 51 | 289 | 0.0 | 0.0 | 0.00 | 0.00 | 0.00 | 92 | 1012.8 |
| 20260509114026 | 51 | 289 | 0.0 | 0.0 | 0.00 | 0.00 | 0.00 | 92 | 1013.2 |
| 20260509113523 | 51 | 289 | 0.0 | 0.0 | 0.00 | 0.00 | 0.00 | 92 | 1012.9 |
| 20260509113021 | 51 | 289 | 0.0 | 0.0 | 0.00 | 0.00 | 0.00 | 92 | 1013.0 |
| 20260509112517 | 51 | 289 | 0.0 | 0.0 | 0.00 | 0.00 | 0.00 | 92 | 1012.7 |
| 20260509112014 | 51 | 289 | 0.0 | 0.0 | 0.00 | 0.00 | 0.00 | 92 | 1012.9 |
| 20260509111511 | 51 | 289 | 0.0 | 0.0 | 0.00 | 0.00 | 0.00 | 92 | 1012.7 |
| 20260509111008 | 50 | 289 | 0.0 | 0.0 | 0.00 | 0.00 | 0.00 | 92 | 1012.7 |
| 20260509110505 | 50 | 289 | 0.0 | 0.0 | 0.00 | 0.00 | 0.00 | 92 | 1012.7 |
| 20260509110002 | 50 | 289 | 0.0 | 1.0 | 0.00 | 0.00 | 0.00 | 92 | 1012.6 |
| 20260509105500 | 50 | 289 | 0.0 | 0.0 | 0.00 | 0.00 | 0.00 | 92 | 1012.5 |
| 20260509104957 | 50 | 289 | 1.0 | 1.0 | 0.00 | 0.00 | 0.00 | 93 | 1012.7 |
| 20260509104454 | 50 | 289 | 0.0 | 0.0 | 0.00 | 0.00 | 0.00 | 93 | 1012.6 |
| 20260509103951 | 49 | 289 | 0.0 | 0.0 | 0.00 | 0.00 | 0.00 | 93 | 1012.6 |
| 20260509103449 | 49 | 291 | 0.0 | 0.0 | 0.00 | 0.00 | 0.00 | 93 | 1012.4 |
| 20260509102947 | 50 | 291 | 0.0 | 0.0 | 0.00 | 0.00 | 0.00 | 93 | 1012.3 |
| 20260509102444 | 50 | 291 | 0.0 | 1.0 | 0.00 | 0.00 | 0.00 | 92 | 1012.3 |
| 20260509101940 | 50 | 291 | 0.0 | 0.0 | 0.00 | 0.00 | 0.00 | 92 | 1012.4 |
| 20260509101436 | 50 | 291 | 0.0 | 0.0 | 0.00 | 0.00 | 0.00 | 92 | 1012.1 |
| 20260509100934 | 50 | 291 | 0.0 | 0.0 | 0.00 | 0.00 | 0.00 | 92 | 1012.2 |
| 20260509100431 | 50 | 291 | 0.0 | 1.0 | 0.00 | 0.00 | 0.00 | 91 | 1012.0 |
| 20260509095927 | 50 | 291 | 2.0 | 2.0 | 0.00 | 0.00 | 0.00 | 92 | 1012.2 |
| 20260509095425 | 50 | 291 | 0.0 | 0.0 | 0.00 | 0.00 | 0.00 | 91 | 1012.0 |
| 20260509094922 | 50 | 291 | 0.0 | 0.0 | 0.00 | 0.00 | 0.00 | 92 | 1012.1 |
| 20260509094418 | 50 | 292 | 0.0 | 1.0 | 0.00 | 0.00 | 0.00 | 91 | 1012.2 |
| 20260509093916 | 49 | 292 | 2.0 | 3.0 | 0.00 | 0.00 | 0.00 | 92 | 1012.3 |
| 20260509093413 | 49 | 284 | 1.0 | 1.0 | 0.00 | 0.00 | 0.00 | 93 | 1012.2 |
| 20260509092911 | 50 | 284 | 1.0 | 2.0 | 0.00 | 0.00 | 0.00 | 93 | 1012.2 |
| 20260509092409 | 49 | 173 | 1.0 | 2.0 | 0.00 | 0.00 | 0.00 | 93 | 1012.2 |
| 20260509091907 | 49 | 213 | 0.0 | 0.0 | 0.00 | 0.00 | 0.00 | 93 | 1012.6 |
| 20260509091404 | 49 | 213 | 0.0 | 0.0 | 0.00 | 0.00 | 0.00 | 93 | 1012.4 |
| 20260509090901 | 50 | 229 | 1.0 | 1.0 | 0.00 | 0.00 | 0.00 | 94 | 1012.3 |
| 20260509090358 | 50 | 257 | 0.0 | 0.0 | 0.00 | 0.00 | 0.00 | 92 | 1012.4 |
| 20260509085855 | 49 | 248 | 0.0 | 0.0 | 0.00 | 0.00 | 0.00 | 92 | 1012.3 |
| 20260509085353 | 49 | 236 | 0.0 | 0.0 | 0.00 | 0.00 | 0.00 | 92 | 1012.3 |
| 20260509084849 | 49 | 236 | 0.0 | 0.0 | 0.00 | 0.00 | 0.00 | 91 | 1012.2 |
| 20260509084346 | 50 | 236 | 0.0 | 0.0 | 0.00 | 0.00 | 0.00 | 91 | 1012.3 |
| 20260509083844 | 50 | 236 | 0.0 | 0.0 | 0.00 | 0.00 | 0.00 | 91 | 1012.2 |
| 20260509083340 | 50 | 236 | 0.0 | 0.0 | 0.00 | 0.00 | 0.00 | 90 | 1012.2 |
| 20260509082837 | 50 | 233 | 0.0 | 0.0 | 0.00 | 0.00 | 0.00 | 91 | 1012.1 |
| 20260509082333 | 49 | 233 | 0.0 | 1.0 | 0.00 | 0.00 | 0.00 | 91 | 1012.2 |
| 20260509081831 | 49 | 241 | 0.0 | 0.0 | 0.00 | 0.00 | 0.00 | 91 | 1012.1 |
| 20260509081328 | 49 | 241 | 0.0 | 0.0 | 0.00 | 0.00 | 0.00 | 91 | 1012.1 |
| 20260509080826 | 50 | 244 | 0.0 | 0.0 | 0.00 | 0.00 | 0.00 | 91 | 1012.1 |
| 20260509080323 | 50 | 244 | 0.0 | 0.0 | 0.00 | 0.00 | 0.00 | 90 | 1012.2 |
| 20260509075821 | 50 | 244 | 0.0 | 0.0 | 0.00 | 0.00 | 0.00 | 90 | 1012.2 |
| 20260509075318 | 50 | 244 | 0.0 | 0.0 | 0.00 | 0.00 | 0.00 | 91 | 1012.1 |
| 20260509074815 | 50 | 244 | 0.0 | 0.0 | 0.00 | 0.00 | 0.00 | 90 | 1012.3 |
| 20260509074313 | 50 | 244 | 0.0 | 1.0 | 0.00 | 0.00 | 0.00 | 90 | 1012.2 |
| 20260509073809 | 50 | 241 | 0.0 | 1.0 | 0.00 | 0.00 | 0.00 | 90 | 1012.0 |
| 20260509073305 | 50 | 241 | 0.0 | 0.0 | 0.00 | 0.00 | 0.00 | 89 | 1012.2 |
| 20260509072803 | 50 | 241 | 0.0 | 1.0 | 0.00 | 0.00 | 0.00 | 89 | 1012.0 |
| 20260509072259 | 49 | 240 | 0.0 | 2.0 | 0.00 | 0.00 | 0.00 | 88 | 1012.1 |
| 20260509071756 | 49 | 235 | 1.0 | 1.0 | 0.00 | 0.00 | 0.00 | 89 | 1012.0 |
| 20260509071253 | 49 | 219 | 0.0 | 0.0 | 0.00 | 0.00 | 0.00 | 89 | 1012.4 |
| 20260509070750 | 49 | 242 | 0.0 | 1.0 | 0.00 | 0.00 | 0.00 | 88 | 1012.0 |
| 20260509070246 | 49 | 242 | 0.0 | 0.0 | 0.00 | 0.00 | 0.00 | 87 | 1012.2 |
| 20260509065742 | 49 | 242 | 0.0 | 0.0 | 0.00 | 0.00 | 0.00 | 87 | 1012.0 |
| 20260509065239 | 49 | 242 | 0.0 | 0.0 | 0.00 | 0.00 | 0.00 | 86 | 1012.1 |
| 20260509064735 | 50 | 242 | 0.0 | 0.0 | 0.00 | 0.00 | 0.00 | 86 | 1012.0 |
| 20260509064233 | 50 | 242 | 0.0 | 0.0 | 0.00 | 0.00 | 0.00 | 85 | 1012.1 |
| 20260509063730 | 50 | 242 | 1.0 | 1.0 | 0.00 | 0.00 | 0.00 | 85 | 1012.2 |
| 20260509063226 | 50 | 243 | 0.0 | 1.0 | 0.00 | 0.00 | 0.00 | 85 | 1012.2 |
| 20260509062724 | 51 | 243 | 0.0 | 2.0 | 0.00 | 0.00 | 0.00 | 88 | 1012.5 |
| 20260509062221 | 51 | 230 | 0.0 | 0.0 | 0.00 | 0.00 | 0.00 | 86 | 1012.3 |
| 20260509061718 | 51 | 230 | 0.0 | 0.0 | 0.00 | 0.00 | 0.00 | 87 | 1012.5 |
| 20260509061216 | 51 | 230 | 0.0 | 0.0 | 0.00 | 0.00 | 0.00 | 85 | 1012.3 |
| 20260509060713 | 51 | 202 | 0.0 | 0.0 | 0.00 | 0.00 | 0.00 | 86 | 1012.4 |
| 20260509060209 | 51 | 202 | 0.0 | 0.0 | 0.00 | 0.00 | 0.00 | 85 | 1012.3 |
| 20260509055704 | 52 | 202 | 0.0 | 0.0 | 0.00 | 0.00 | 0.00 | 84 | 1012.4 |
| 20260509055200 | 52 | 202 | 0.0 | 1.0 | 0.00 | 0.00 | 0.00 | 83 | 1012.6 |
| 20260509054657 | 52 | 202 | 1.0 | 2.0 | 0.00 | 0.00 | 0.00 | 84 | 1012.8 |
| 20260509054155 | 52 | 239 | 0.0 | 0.0 | 0.00 | 0.00 | 0.00 | 82 | 1012.6 |
| 20260509053653 | 52 | 239 | 0.0 | 1.0 | 0.00 | 0.00 | 0.00 | 81 | 1012.7 |
| 20260509053150 | 52 | 220 | 0.0 | 0.0 | 0.00 | 0.00 | 0.00 | 82 | 1012.8 |
| 20260509052648 | 52 | 220 | 0.0 | 1.0 | 0.00 | 0.00 | 0.00 | 82 | 1012.9 |
| 20260509052145 | 52 | 220 | 0.0 | 0.0 | 0.00 | 0.00 | 0.00 | 81 | 1013.0 |
| 20260509051643 | 52 | 220 | 0.0 | 0.0 | 0.00 | 0.00 | 0.00 | 82 | 1013.0 |
| 20260509051140 | 52 | 220 | 0.0 | 0.0 | 0.00 | 0.00 | 0.00 | 83 | 1013.2 |
| 20260509050637 | 52 | 220 | 0.0 | 0.0 | 0.00 | 0.00 | 0.00 | 84 | 1013.0 |
| 20260509050133 | 52 | 220 | 0.0 | 1.0 | 0.00 | 0.00 | 0.00 | 83 | 1012.9 |
| 20260509045631 | 52 | 221 | 0.0 | 0.0 | 0.00 | 0.00 | 0.00 | 84 | 1013.0 |
| 20260509045127 | 53 | 243 | 0.0 | 0.0 | 0.00 | 0.00 | 0.00 | 82 | 1012.9 |
| 20260509044625 | 53 | 249 | 0.0 | 0.0 | 0.00 | 0.00 | 0.00 | 81 | 1012.7 |
| 20260509044122 | 53 | 254 | 0.0 | 0.0 | 0.00 | 0.00 | 0.00 | 81 | 1012.9 |
| 20260509043618 | 53 | 254 | 0.0 | 0.0 | 0.00 | 0.00 | 0.00 | 80 | 1012.8 |
| 20260509043114 | 53 | 254 | 0.0 | 0.0 | 0.00 | 0.00 | 0.00 | 80 | 1012.8 |
| 20260509042611 | 53 | 254 | 1.0 | 1.0 | 0.00 | 0.00 | 0.00 | 81 | 1012.9 |
| 20260509042106 | 53 | 238 | 0.0 | 0.0 | 0.00 | 0.00 | 0.00 | 81 | 1012.9 |
| 20260509041603 | 53 | 238 | 0.0 | 0.0 | 0.00 | 0.00 | 0.00 | 80 | 1012.9 |
| 20260509041101 | 53 | 238 | 0.0 | 0.0 | 0.00 | 0.00 | 0.00 | 81 | 1013.0 |
| 20260509040559 | 53 | 238 | 0.0 | 0.0 | 0.00 | 0.00 | 0.00 | 80 | 1013.0 |
| 20260509040055 | 53 | 238 | 0.0 | 0.0 | 0.00 | 0.00 | 0.00 | 81 | 1012.9 |
| 20260509035552 | 53 | 238 | 0.0 | 0.0 | 0.00 | 0.00 | 0.00 | 80 | 1013.1 |
| 20260509035049 | 53 | 238 | 0.0 | 0.0 | 0.00 | 0.00 | 0.00 | 78 | 1013.1 |
| 20260509034548 | 53 | 238 | 0.0 | 0.0 | 0.00 | 0.00 | 0.00 | 77 | 1013.0 |
| 20260509034044 | 53 | 238 | 0.0 | 0.0 | 0.00 | 0.00 | 0.00 | 79 | 1012.8 |
| 20260509033541 | 53 | 235 | 0.0 | 1.0 | 0.00 | 0.00 | 0.00 | 81 | 1013.0 |
| 20260509033038 | 54 | 248 | 0.0 | 0.0 | 0.00 | 0.00 | 0.00 | 80 | 1012.8 |
| 20260509032536 | 54 | 248 | 1.0 | 1.0 | 0.00 | 0.00 | 0.00 | 80 | 1012.8 |
| 20260509032032 | 54 | 245 | 2.0 | 3.0 | 0.00 | 0.00 | 0.00 | 81 | 1012.9 |
| 20260509031530 | 54 | 233 | 0.0 | 1.0 | 0.00 | 0.00 | 0.00 | 80 | 1012.9 |
| 20260509031027 | 54 | 233 | 0.0 | 1.0 | 0.00 | 0.00 | 0.00 | 81 | 1013.0 |
| 20260509030525 | 54 | 176 | 0.0 | 0.0 | 0.00 | 0.00 | 0.00 | 80 | 1013.1 |
| 20260509030022 | 54 | 221 | 1.0 | 1.0 | 0.00 | 0.00 | 0.00 | 79 | 1012.9 |
| 20260509025518 | 55 | 291 | 0.0 | 0.0 | 0.00 | 0.00 | 0.00 | 78 | 1013.0 |
| 20260509025013 | 55 | 267 | 2.0 | 2.0 | 0.00 | 0.00 | 0.00 | 76 | 1013.1 |
| 20260509024509 | 55 | 241 | 1.0 | 2.0 | 0.00 | 0.00 | 0.00 | 76 | 1013.0 |
| 20260509024006 | 55 | 128 | 2.0 | 2.0 | 0.00 | 0.00 | 0.00 | 77 | 1013.1 |
| 20260509023504 | 55 | 216 | 0.0 | 0.0 | 0.00 | 0.00 | 0.00 | 76 | 1013.3 |
| 20260509023000 | 55 | 148 | 0.0 | 1.0 | 0.00 | 0.00 | 0.00 | 78 | 1013.5 |
| 20260509022457 | 55 | 148 | 0.0 | 0.0 | 0.00 | 0.00 | 0.00 | 77 | 1013.3 |
| 20260509021955 | 55 | 148 | 1.0 | 2.0 | 0.00 | 0.00 | 0.00 | 76 | 1013.4 |
| 20260509021452 | 55 | 201 | 2.0 | 2.0 | 0.00 | 0.00 | 0.00 | 77 | 1013.4 |
| 20260509020948 | 55 | 279 | 0.0 | 0.0 | 0.00 | 0.00 | 0.00 | 72 | 1013.1 |
| 20260509020447 | 55 | 279 | 1.0 | 2.0 | 0.00 | 0.00 | 0.00 | 75 | 1013.0 |
| 20260509015943 | 56 | 252 | 0.0 | 1.0 | 0.00 | 0.00 | 0.00 | 71 | 1013.2 |
| 20260509015443 | 55 | 198 | 0.0 | 1.0 | 0.00 | 0.00 | 0.00 | 72 | 1013.1 |
| 20260509014939 | 56 | 198 | 0.0 | 1.0 | 0.00 | 0.00 | 0.00 | 74 | 1012.9 |
| 20260509014436 | 56 | 198 | 0.0 | 1.0 | 0.00 | 0.00 | 0.00 | 72 | 1013.1 |
| 20260509013932 | 56 | 199 | 0.0 | 0.0 | 0.00 | 0.00 | 0.00 | 70 | 1012.9 |
| 20260509013429 | 55 | 199 | 0.0 | 0.0 | 0.00 | 0.00 | 0.00 | 71 | 1012.9 |
| 20260509012924 | 55 | 199 | 0.0 | 0.0 | 0.00 | 0.00 | 0.00 | 71 | 1012.8 |
| 20260509012421 | 55 | 199 | 0.0 | 1.0 | 0.00 | 0.00 | 0.00 | 73 | 1012.9 |
| 20260509011918 | 55 | 146 | 0.0 | 0.0 | 0.00 | 0.00 | 0.00 | 75 | 1012.8 |
| 20260509011416 | 56 | 146 | 1.0 | 2.0 | 0.00 | 0.00 | 0.00 | 79 | 1012.7 |
| 20260509010914 | 56 | 162 | 0.0 | 0.0 | 0.00 | 0.00 | 0.00 | 72 | 1012.8 |
| 20260509010411 | 57 | 162 | 1.0 | 2.0 | 0.00 | 0.00 | 0.00 | 71 | 1012.7 |
| 20260509005907 | 57 | 172 | 0.0 | 0.0 | 0.00 | 0.00 | 0.00 | 65 | 1012.7 |
| 20260509005406 | 56 | 172 | 0.0 | 0.0 | 0.00 | 0.00 | 0.00 | 63 | 1012.6 |
| 20260509004905 | 58 | 172 | 1.0 | 1.0 | 0.00 | 0.00 | 0.00 | 66 | 1012.6 |
| 20260509004402 | 58 | 193 | 1.0 | 1.0 | 0.00 | 0.00 | 0.00 | 58 | 1012.7 |
| 20260509003859 | 58 | 185 | 0.0 | 1.0 | 0.00 | 0.00 | 0.00 | 59 | 1012.6 |
| 20260509003357 | 58 | 185 | 0.0 | 0.0 | 0.00 | 0.00 | 0.00 | 57 | 1012.6 |
| 20260509002854 | 58 | 185 | 0.0 | 0.0 | 0.00 | 0.00 | 0.00 | 56 | 1012.5 |
| 20260509002352 | 60 | 185 | 0.0 | 1.0 | 0.00 | 0.00 | 0.00 | 56 | 1012.5 |
| 20260509001849 | 60 | 235 | 1.0 | 1.0 | 0.00 | 0.00 | 0.00 | 49 | 1012.6 |
| 20260509001345 | 61 | 271 | 1.0 | 1.0 | 0.00 | 0.00 | 0.00 | 50 | 1012.5 |
| 20260509000842 | 62 | 295 | 0.0 | 1.0 | 0.00 | 0.00 | 0.00 | 48 | 1012.4 |
| 20260509000340 | 62 | 295 | 0.0 | 1.0 | 0.00 | 0.00 | 0.00 | 49 | 1012.6 |
| 20260508235836 | 63 | 295 | 0.0 | 0.0 | 0.00 | 0.00 | 0.00 | 47 | 1012.3 |
| 20260508235333 | 63 | 295 | 0.0 | 0.0 | 0.00 | 0.00 | 0.00 | 44 | 1012.5 |
| 20260508234830 | 64 | 295 | 0.0 | 0.0 | 0.00 | 0.00 | 0.00 | 45 | 1012.2 |
| 20260508234327 | 64 | 295 | 0.0 | 0.0 | 0.00 | 0.00 | 0.00 | 42 | 1012.4 |
| 20260508233825 | 65 | 295 | 0.0 | 0.0 | 0.00 | 0.00 | 0.00 | 42 | 1012.2 |
| 20260508233324 | 66 | 295 | 0.0 | 0.0 | 0.00 | 0.00 | 0.00 | 41 | 1012.3 |
| 20260508232821 | 66 | 295 | 0.0 | 0.0 | 0.00 | 0.00 | 0.00 | 42 | 1012.2 |
| 20260508232317 | 66 | 295 | 0.0 | 0.0 | 0.00 | 0.00 | 0.00 | 42 | 1012.2 |
| 20260508231816 | 67 | 292 | 1.0 | 1.0 | 0.00 | 0.00 | 0.00 | 41 | 1012.3 |
| 20260508231311 | 67 | 271 | 0.0 | 0.0 | 0.00 | 0.00 | 0.00 | 40 | 1012.3 |
| 20260508230808 | 67 | 234 | 1.0 | 4.0 | 0.00 | 0.00 | 0.00 | 39 | 1012.2 |
| 20260508230305 | 67 | 274 | 1.0 | 2.0 | 0.00 | 0.00 | 0.00 | 40 | 1012.4 |
| 20260508225802 | 68 | 291 | 2.0 | 4.0 | 0.00 | 0.00 | 0.00 | 39 | 1012.4 |
| 20260508225259 | 68 | 279 | 1.0 | 2.0 | 0.00 | 0.00 | 0.00 | 40 | 1012.2 |
| 20260508224757 | 67 | 309 | 3.0 | 3.0 | 0.00 | 0.00 | 0.00 | 38 | 1012.3 |
| 20260508224254 | 67 | 291 | 0.0 | 0.0 | 0.00 | 0.00 | 0.00 | 39 | 1012.3 |
| 20260508223752 | 67 | 291 | 0.0 | 0.0 | 0.00 | 0.00 | 0.00 | 40 | 1012.4 |
| 20260508223249 | 66 | 297 | 0.0 | 2.0 | 0.00 | 0.00 | 0.00 | 43 | 1012.3 |
| 20260508222746 | 66 | 251 | 1.0 | 2.0 | 0.00 | 0.00 | 0.00 | 40 | 1012.4 |
| 20260508222243 | 66 | 243 | 0.0 | 0.0 | 0.00 | 0.00 | 0.00 | 43 | 1012.4 |
| 20260508221739 | 66 | 253 | 0.0 | 1.0 | 0.00 | 0.00 | 0.00 | 40 | 1012.5 |
| 20260508221236 | 66 | 284 | 4.0 | 6.0 | 0.00 | 0.00 | 0.00 | 38 | 1012.4 |
| 20260508220731 | 66 | 261 | 1.0 | 2.0 | 0.00 | 0.00 | 0.00 | 42 | 1012.5 |
| 20260508220228 | 66 | 275 | 0.0 | 2.0 | 0.00 | 0.00 | 0.00 | 42 | 1012.7 |
| 20260508215725 | 66 | 321 | 7.0 | 8.0 | 0.00 | 0.00 | 0.00 | 42 | 1012.6 |
| 20260508215221 | 66 | 264 | 2.0 | 3.0 | 0.00 | 0.00 | 0.00 | 40 | 1012.5 |
| 20260508214719 | 66 | 317 | 6.0 | 8.0 | 0.00 | 0.00 | 0.00 | 40 | 1012.5 |
| 20260508214216 | 67 | 301 | 6.0 | 11.0 | 0.00 | 0.00 | 0.00 | 40 | 1012.6 |
| 20260508213712 | 68 | 298 | 4.0 | 8.0 | 0.00 | 0.00 | 0.00 | 39 | 1012.5 |
| 20260508213209 | 68 | 296 | 3.0 | 8.0 | 0.00 | 0.00 | 0.00 | 40 | 1012.6 |
| 20260508212705 | 68 | 303 | 6.0 | 7.0 | 0.00 | 0.00 | 0.00 | 38 | 1012.6 |
| 20260508212202 | 67 | 293 | 3.0 | 4.0 | 0.00 | 0.00 | 0.00 | 40 | 1012.9 |
| 20260508211657 | 69 | 301 | 2.0 | 4.0 | 0.00 | 0.00 | 0.00 | 40 | 1012.9 |
| 20260508211153 | 69 | 296 | 0.0 | 2.0 | 0.00 | 0.00 | 0.00 | 41 | 1012.7 |
| 20260508210651 | 68 | 317 | 2.0 | 3.0 | 0.00 | 0.00 | 0.00 | 38 | 1012.7 |
| 20260508210148 | 67 | 222 | 1.0 | 2.0 | 0.00 | 0.00 | 0.00 | 38 | 1012.9 |
| 20260508205645 | 67 | 286 | 2.0 | 4.0 | 0.00 | 0.00 | 0.00 | 40 | 1012.8 |
| 20260508205141 | 67 | 333 | 4.0 | 9.0 | 0.00 | 0.00 | 0.00 | 39 | 1013.0 |
| 20260508204637 | 65 | 301 | 2.0 | 2.0 | 0.00 | 0.00 | 0.00 | 39 | 1013.1 |
| 20260508204134 | 65 | 224 | 1.0 | 3.0 | 0.00 | 0.00 | 0.00 | 42 | 1013.2 |
| 20260508203630 | 65 | 264 | 2.0 | 4.0 | 0.00 | 0.00 | 0.00 | 41 | 1013.3 |
| 20260508203126 | 65 | 296 | 3.0 | 7.0 | 0.00 | 0.00 | 0.00 | 40 | 1013.3 |
| 20260508202622 | 66 | 296 | 4.0 | 7.0 | 0.00 | 0.00 | 0.00 | 41 | 1013.3 |
| 20260508202120 | 65 | 277 | 0.0 | 1.0 | 0.00 | 0.00 | 0.00 | 42 | 1013.2 |
| 20260508201617 | 65 | 271 | 2.0 | 3.0 | 0.00 | 0.00 | 0.00 | 40 | 1013.6 |
| 20260508201113 | 65 | 300 | 4.0 | 4.0 | 0.00 | 0.00 | 0.00 | 41 | 1013.5 |
| 20260508200610 | 65 | 231 | 3.0 | 3.0 | 0.00 | 0.00 | 0.00 | 40 | 1013.8 |
| 20260508200106 | 65 | 294 | 3.0 | 6.0 | 0.00 | 0.00 | 0.00 | 39 | 1013.9 |
| 20260508195603 | 65 | 304 | 6.0 | 10.0 | 0.00 | 0.00 | 0.00 | 38 | 1013.8 |
| 20260508195059 | 65 | 227 | 4.0 | 4.0 | 0.00 | 0.00 | 0.00 | 40 | 1013.7 |
| 20260508194556 | 66 | 206 | 1.0 | 3.0 | 0.00 | 0.00 | 0.00 | 42 | 1013.7 |
| 20260508194053 | 66 | 290 | 0.0 | 2.0 | 0.00 | 0.00 | 0.00 | 39 | 1013.8 |
| 20260508193549 | 66 | 282 | 3.0 | 4.0 | 0.00 | 0.00 | 0.00 | 38 | 1013.9 |
| 20260508193046 | 66 | 221 | 2.0 | 3.0 | 0.00 | 0.00 | 0.00 | 38 | 1013.7 |
| 20260508192544 | 66 | 303 | 6.0 | 9.0 | 0.00 | 0.00 | 0.00 | 40 | 1014.0 |
| 20260508192041 | 66 | 284 | 0.0 | 1.0 | 0.00 | 0.00 | 0.00 | 38 | 1013.9 |
| 20260508191537 | 66 | 300 | 1.0 | 2.0 | 0.00 | 0.00 | 0.00 | 39 | 1014.0 |
| 20260508191034 | 66 | 242 | 3.0 | 4.0 | 0.00 | 0.00 | 0.00 | 36 | 1014.0 |
| 20260508190531 | 66 | 273 | 1.0 | 4.0 | 0.00 | 0.00 | 0.00 | 37 | 1014.0 |
| 20260508190027 | 66 | 169 | 2.0 | 3.0 | 0.00 | 0.00 | 0.00 | 37 | 1014.3 |